Home > Weather > Reinach > Past weeks

Flag for Switzerland Past Weather in Reinach, Basel-Land, Switzerland — Yesterday and Last 2 Weeks

Now
58 °F

Passing clouds.


Feels Like: 58 °F
Forecast: 47 / 76 °F
Wind: 2 mph from West

Location: Bale-Mulhouse

Current Time: May 25, 2016 at 10:54:17 PM

Latest Report: May 25, 2016 at 10:00 PM


Visibility: 19 mi

Pressure: 29.96 "Hg

Humidity: 84%

Dew Point: 53 °F

Location of ReinachLocation

Past Weather in Reinach — Graph

°F

Reinach Temperature Yesterday

Maximum temperature yesterday: 57 °F (at 7:00 PM)
Minimum temperature yesterday: 50 °F (at 6:00 AM)
Average temperature yesterday: 53 °F

High & Low Weather Summary for the Past Weeks

 TemperatureHumidityPressure
High78 °F (May 21, 5:00 PM)98% (May 11, 6:00 AM)30.25 "Hg (May 11, 6:00 AM)
Low40 °F (May 16, 2:00 AM)38% (May 18, 3:00 PM)29.47 "Hg (May 13, 5:00 AM)
Average56 °F78%29.92 "Hg
* Reported May 10 9:00 PM — May 25 9:00 PM, Reinach, Weather by CustomWeather, © 2016

Note: Actual official high and low records may vary slightly from our data, if they occured in-between our weather recording intervals... More about our weather records

Advertising

Reinach Weather History for the Previous 24 Hours

Scroll right to see more
 ConditionsComfort  
Time TempWeatherWind HumidityBarometerVisibility
9:00 PM
Wed, May 25
65 °FPartly sunny.2 mph60%29.93 "Hg25 mi
8:00 PM67 °FOvercast.No wind60%29.92 "Hg19 mi
7:00 PM67 °FOvercast.2 mph60%29.92 "Hg25 mi
6:00 PM67 °FOvercast.1 mph55%29.92 "Hg16 mi
5:00 PM66 °FOvercast.3 mph59%29.93 "Hg16 mi
4:00 PM66 °FPartly sunny.6 mph60%29.92 "Hg2 mi
3:00 PM68 °FPartly sunny.5 mph58%29.91 "Hg12 mi
2:00 PM65 °FScattered clouds.3 mph59%29.92 "Hg12 mi
1:00 PM64 °FPassing clouds.3 mph58%29.93 "Hg11 mi
12:00 PM61 °FCool.6 mph62%29.95 "Hg11 mi
11:00 AM59 °FPartly sunny.7 mph67%29.97 "Hg9 mi
10:00 AM56 °FOvercast.5 mph72%29.98 "Hg9 mi
9:00 AM54 °FOvercast.2 mph83%29.98 "Hg7 mi
8:00 AM52 °FLow clouds.2 mph88%29.97 "Hg5 mi
7:00 AM51 °FFog.3 mph93%29.97 "Hg2 mi
6:00 AM51 °FFog.3 mph94%29.97 "Hg1 mi
5:00 AM51 °FFog.5 mph94%29.96 "Hg2 mi
4:00 AM51 °FOvercast.3 mph95%29.96 "Hg3 mi
3:00 AM51 °FOvercast.3 mph94%29.97 "Hg4 mi
2:00 AM51 °FOvercast.3 mph93%29.98 "Hg5 mi
1:00 AM51 °FLow clouds.8 mph93%29.97 "Hg7 mi
12:00 AM51 °FOvercast.6 mph91%29.98 "Hg16 mi
11:00 PM
Tue, May 24
52 °FOvercast.6 mph88%29.98 "Hg16 mi
10:00 PM53 °FOvercast.5 mph88%29.98 "Hg16 mi
Weather by CustomWeather, © 2016

See weather overviewHow to use our weather pages